Regional Weather Roundup
Issued by NWS Wakefield, VA

Home | Current Version | Previous Version | Graphics & Text | Print | Product List | Glossary On
Versions: 1 2 3 4 5 6 7 8 9 10 11 12 13 14 15 16 17 18 19 20 21 22 23 24 25 26 27
000
ASUS41 KAKQ 202210
RWRAKQ

REGIONAL WEATHER ROUNDUP
NATIONAL WEATHER SERVICE WAKEFIELD VA
600 PM EDT SUN APR 20 2014

Note: "fair" indicates few or no clouds below 12,000 feet with no
significant weather and/or obstructions to visibility. * = Denotes
station may not report precipitation (e.g., rain,snow,etc.),
thunder or fog.

VAZ042-051-052>054-056-202300-
NORTHERN VIRGINIA

CITY           SKY/WX    TMP DP  RH WIND       PRES   REMARKS
WASH NATIONAL  MOSUNNY   61  38  42 E9        30.34S
DULLES         MOSUNNY   61  32  33 NE6       30.32F
FORT BELVOIR   SUNNY     60  34  36 SE13      30.34S
QUANTICO       SUNNY     62  37  39 E12       30.33F
FREDERICKSBRG* SUNNY     63  36  36 E13G18    30.31S
STAFFORD*      SUNNY     63  37  38 E12G21    30.36S
WARRENTON      SUNNY     64  41  42 E9        30.31S
CULPEPER*      SUNNY     66  25  20 NE7       30.31F
MANASSAS*      SUNNY     63  36  36 SE13      30.32S
LEESBURG*      SUNNY     63  36  36 E9        30.33F
WINCHESTER     SUNNY     63  32  31 E10       30.30F
$$

VAZ048-049-060>072-079>083-202300-
CENTRAL AND SOUTH CENTRAL VIRGINIA...AND NORTH CENTRAL NORTH CAROLINA

CITY           SKY/WX    TMP DP  RH WIND       PRES   REMARKS
RICHMOND       PTSUNNY   63  36  36 NE13      30.29S
CHESTERFIELD*  NOT AVBL
HANOVER        SUNNY     61  33  35 E8        30.32R
TAPPAHANNOCK*  SUNNY     59  31  34 NE10G18   30.33S
CHARLOTTSVILLE SUNNY     65  33  30 NE10      30.28S
ORANGE*        SUNNY     63  32  31 NE12      30.31S
LOUISA*        SUNNY     64  32  29 E8        30.28S
FARMVILLE*     SUNNY     66  34  30 NE12G18   30.24S
SOUTH HILL*    MOSUNNY   64  37  36 NE5       30.30R
ROANOKE RAPIDS CLOUDY    61  36  39 NE14G22   30.24S
RALEIGH        CLOUDY    65  44  46 E17G24    30.21R
$$

VAZ088>098-202300-
SOUTHEAST VIRGINIA

CITY           SKY/WX    TMP DP  RH WIND       PRES   REMARKS
NORFOLK        CLOUDY    52  38  58 NE26G33   30.28S
VIRGINIA BEACH CLOUDY    50  40  68 NE21G37   30.27S
NORFOLK NAVAL  CLOUDY    55  37  50 NE25G32   30.30S
WEST POINT*    SUNNY     60  36  40 NE15G22   30.33S
NEWPORT NEWS   MOSUNNY   59  38  45 NE15G28   30.30S
LANGLEY AFB    CLOUDY    55  39  56 NE22      30.30S
FORT EUSTIS    MOSUNNY   58  39  50 NE13G24   30.28S
WILLIAMSBURG*  SUNNY     63  39  42 E9G21     30.31R
FRANKLIN*      CLOUDY    59  36  41 NE20G25   30.28R
WAKEFIELD      MOSUNNY   60  35  39 VRB7      30.29R
$$

VAZ020-022-025-037-045-202300-
WESTERN AND SOUTHWEST VIRGINIA

CITY           SKY/WX    TMP DP  RH WIND       PRES   REMARKS
STAUNTON*      SUNNY     64  30  28 E6        30.29S
HOT SPRINGS VA SUNNY     55  23  28 E8        30.33S
LYNCHBURG      SUNNY     70  32  24 NE14      30.26S
DANVILLE       SUNNY     68  34  28 E12       30.23S
MARTINSVILLE   SUNNY     69  33  26 E3        30.25S
ROANOKE        MOSUNNY   66  30  26 SE13      30.25S
BLACKSBURG     SUNNY     64  34  32 E9        30.26F
DUBLIN*        SUNNY     64  24  21 E6        30.25S
MARION*        SUNNY     65  25  22 E8        30.24F
HILLSVILLE*    SUNNY     63   3   9 E6        30.27S
RICHLANDS*     CLEAR     72  30  20 S6        30.20S
WISE*          SUNNY     72  12  10 SE5       30.21S
ABINGDON*      SUNNY     73  27  18 E7        30.18S
$$

MDZ021>025-VAZ099-100-202300-
SOUTHERN MARYLAND AND THE DELMARVA PENINSULA

CITY           SKY/WX    TMP DP  RH WIND       PRES   REMARKS
PATUXENT RIVER PTSUNNY   57  34  41 E14       30.34F
BAY BRIDGE APT SUNNY     59  32  36 E10       30.36S
LEONARDTOWN    SUNNY     55  32  41 E8        30.36S
DOVER          SUNNY     51  34  51 E15       30.35S
GEORGETOWN     SUNNY     50  31  48 NE16G23   30.38F
EASTON         MOSUNNY   57  36  44 E13       30.40S
CAMBRIDGE      SUNNY     55  30  38 E10G22    30.36S
SALISBURY      SUNNY     53  30  41 NE14      30.36S
OCEAN CITY     MOSUNNY   49  34  56 NE14G25   30.36F
WALLOPS ISLAND SUNNY     51  38  60 E25G33    30.33F
ACCOMACK*      MOSUNNY   52  30  43 NE21      30.30F
$$

NCZ012>017-030>032-202300-
EASTERN NORTH CAROLINA

CITY           SKY/WX    TMP DP  RH WIND       PRES   REMARKS
ELIZABETH CITY CLOUDY    50  44  80 N20G30    30.23S
AHOSKIE*       CLOUDY    57  34  42 NE18G29   30.25S
EDENTON*       CLOUDY    54  43  67 NE21G26   30.21S
CURRITUCK*     RAIN      49  43  80 N18G28    30.25R
KILL DEVIL HLS LGT RAIN  47  47  97 N16G29    30.16F
MANTEO         DRIZZLE   48  47  97 NE23G36   30.14R
CAPE HATTERAS  LGT RAIN  51  51 100 N16G33    30.08R FOG
GOLDSBORO      CLOUDY    60  46  60 NE13G28   30.16S
WASHINGTON     CLOUDY    54  49  85 NE16G28   30.19S
GREENVILLE     CLOUDY    59  45  58 NE14G25   30.20S
NEW BERN       CLOUDY    55  51  86 NE26G35   30.14S
WILMINGTON     CLOUDY    58  52  80 N25G38    30.06F
$$

VAZ048-202300-
ELSEWHERE

CITY           SKY/WX    TMP DP  RH WIND       PRES   REMARKS
HARRISBURG PA  MOSUNNY   62  37  39 SE8       30.32F
BALTIMORE      PTSUNNY   59  34  39 E12       30.34F
ANNAPOLIS      SUNNY     57  40  52 SE14      30.35F
ANDREWS AFB    SUNNY     58  35  43 E10       30.34S
WILMINGTON DE  MOSUNNY   58  30  34 E8        30.38S
PHILADELPHIA   PTSUNNY   56  26  31 E12       30.39F
WILDWOOD NJ*   SUNNY     48  30  49 NE14G23   30.40F
ATLANTIC CITY  SUNNY     48  27  44 NE18      30.40F
HENDERSON NC   SUNNY     65  37  36 NE9G23    30.23S
GREENSBORO     MOSUNNY   67  30  25 E14G22    30.21S
ROCKY MOUNT    CLOUDY    61  38  42 NE16G29   30.22R
FAYETTEVILLE   PTSUNNY   65  49  56 NE16G32   30.15S
CHARLOTTE      MOSUNNY   70  34  26 NE12      30.19R
$$

VAZ100-202300-
MARINE

STATION/POSITION TIME  TEMP    WIND        PRES    WAVE   SWELL
                       AIR SEA DIR/SP/G            HT/PER HT/PER
                 (UTC) (F)     (DEG/KT/KT) (MB)    (FT/S) (FT/S)
44066 TX TWR #4  2200   43 44   40/ 17/ 21 1028.5F   6/ 8   3/ 8
CAPE MAY NJ      2200   48 53   70/ 12/ 17 1028.7F
LEWES DE         2200   46 53   60/ 19/ 21 1028.3S
15NM E FENWICK I 2200   45 46              1027.8F   9/10
OCEAN-CITY-INLET 2200   48 50   60/  6/ 14 1028.0S
WACHAPREAGUE VA  2200   51 57   40/ 20/ 24 1026.0R
THOMAS POINT MD  2200   55 54  110/ 13/ 14 1028.3F
GOOSES REEF MD   2200   55      90/ 10/ 12 1029.2F
COVE POINT MD    2200   55      70/ 15/ 17 1027.5F
SOLOMONS ISLAND  2200      54                N/A
BISHOPS HEAD MD  2200   54 59   60/ 13/ 18 1027.3S
PINEY POINT MD   2200          100/ 15/ 17   N/A
POTOMAC MD       2200   54      80/ 16/ 17 1026.7F
CAMBRIDGE MD     2200   54 58   80/ 14/ 17 1027.6S
LEWISETTA VA     2200   55 56   70/ 13/ 17 1027.0F
RAPPAHANNOCK LGT 2200           40/ 27/ 30 1026.2F
STINGRAY PT      2200   53      70/ 17/ 21 1026.4F
YORK RVR RNG VA  2200   54      50/ 23/ 26 1025.3R
YORKTOWN VA      2200   55 55   40/ 20/ 25 1025.7F
JAMESTOWN VA     2200   57      60/ 12/ 19   N/A
DOMINION TERM VA 2200   56      40/ 10/ 18 1025.5S
KIPTOPEKE VA     2200      53   60/ 12/ 27   N/A
CHES BAY BRIDGE  2200   51 51   20/ 24/ 28 1024.7S
CAPE HENRY VA    2200   48      30/ 28/ 34   N/A
CHESAPEAKE LGHT  2100   47      30/ 29/ 31 1024.5F
WILLOUBY STN VA  2200   52      40/ 24/ 26 1024.7R
S CRANEY ISL VA  2200           10/ 22/ 30 1025.3S
CAPE HENRY BUOY  2200      46                N/A     8/11   3/11
1ST LANDING BUOY 2200      46                N/A     9/11   7/11
64NM E OF VA BCH 2200   49 49   20/ 25/ 31 1021.6F  15/11  13/11
DUCK PIER NC     2200   47 49   20/ 32/ 38 1021.1F
44100 DUCK FRF   2200      48                N/A    13/11   7/11
44056 DUCK FRF   2200      48                N/A    13/11   7/11
OREGON INLET NC  2200   49 51   10/ 22/ 29 1020.3S
HATTERAS NC      2200   53 55   10/ 22/ 29 1018.5R
DIAMOND SHLS NC  2200   68 75   40/ 29/ 35 1015.3F  17/11
CAPE LOOKOUT NC  2100   55      10/ 23/ 28 1018.0R
FRYING PAN SHLS  2200   60 68   30/ 35/ 45 1013.6R  12/ 8   3/11
$$



USA.gov is the U.S. government's official web portal to all federal, state and local government web resources and services.